• In India
  • List of Countries
  • For 7 days
  • Water Temperature
  • Satellite Maps
  • Weather Map
  • Weather Widgets
  • user-avatar
    Login

    Hourly Weather Marynopole

    Today, 17 February, Sunday

    Time Temperature Precipitation Wind Pressure Humidity
    00:00 +1°C° 0 mm 3 mps 748 mmHg 70%
    01:00 +1°C° 0 mm 3 mps 748 mmHg 71%
    02:00 +1°C° 0 mm 3 mps 748 mmHg 72%
    03:00 +1°C° 0 mm 3 mps 748 mmHg 73%
    04:00 +1°C° 0 mm 3 mps 747 mmHg 74%
    05:00 0°C° 0 mm 3 mps 747 mmHg 74%
    06:00 0°C° 0 mm 3 mps 747 mmHg 74%
    07:00 0°C° 0 mm 3 mps 748 mmHg 74%
    08:00 +2°C° 0 mm 3 mps 748 mmHg 69%
    09:00 +3°C° 0 mm 3 mps 748 mmHg 65%
    10:00 +5°C° 0 mm 4 mps 748 mmHg 61%
    11:00 +6°C° 0 mm 4 mps 748 mmHg 59%
    12:00 +7°C° 0 mm 4 mps 748 mmHg 57%
    13:00 +8°C° 0 mm 4 mps 748 mmHg 55%
    14:00 +9°C° 0 mm 3 mps 747 mmHg 58%
    15:00 +8°C° 0 mm 3 mps 747 mmHg 61%
    16:00 +8°C° 0 mm 2 mps 747 mmHg 63%
    17:00 +7°C° 0 mm 2 mps 747 mmHg 68%
    18:00 +6°C° 0 mm 2 mps 747 mmHg 72%
    19:00 +5°C° 0 mm 2 mps 747 mmHg 76%
    20:00 +4°C° 0 mm 2 mps 748 mmHg 79%
    21:00 +4°C° 0 mm 2 mps 748 mmHg 81%
    22:00 +3°C° 0 mm 2 mps 748 mmHg 83%
    23:00 +4°C° 0 mm 1 mps 748 mmHg 85%

    Tomorrow, 18 February, Monday

    Time Temperature Precipitation Wind Pressure Humidity
    00:00 +4°C° 0 mm 1 mps 748 mmHg 87%
    01:00 +3°C° 0 mm 1 mps 748 mmHg 89%
    02:00 +3°C° 0 mm 1 mps 748 mmHg 90%
    03:00 +2°C° 0 mm 0 mps 747 mmHg 91%
    04:00 +2°C° 0 mm 0 mps 747 mmHg 92%
    05:00 +2°C° 0 mm 0 mps 747 mmHg 92%
    06:00 +2°C° 0 mm 0 mps 747 mmHg 92%
    07:00 +2°C° 0 mm 0 mps 747 mmHg 93%
    08:00 +4°C° 0 mm 1 mps 748 mmHg 88%
    09:00 +5°C° 0 mm 1 mps 748 mmHg 83%
    10:00 +6°C° 0 mm 1 mps 748 mmHg 78%
    11:00 +7°C° 0 mm 1 mps 747 mmHg 74%
    12:00 +8°C° 0 mm 1 mps 747 mmHg 69%
    13:00 +9°C° 0 mm 1 mps 747 mmHg 65%
    14:00 +9°C° 0 mm 1 mps 747 mmHg 66%
    15:00 +9°C° 0 mm 1 mps 747 mmHg 67%
    16:00 +9°C° 0 mm 1 mps 746 mmHg 68%
    17:00 +7°C° 0 mm 2 mps 746 mmHg 72%
    18:00 +6°C° 0 mm 2 mps 746 mmHg 76%
    19:00 +4°C° 0 mm 2 mps 746 mmHg 81%
    20:00 +4°C° 0 mm 2 mps 746 mmHg 83%
    21:00 +3°C° 0 mm 2 mps 746 mmHg 85%
    22:00 +3°C° 0 mm 2 mps 746 mmHg 87%
    23:00 +3°C° 0 mm 2 mps 746 mmHg 88%

    Day after tomorrow, 19 February, Tuesday

    Time Temperature Precipitation Wind Pressure Humidity
    00:00 +2°C° 0 mm 2 mps 746 mmHg 89%
    01:00 +2°C° 0 mm 2 mps 746 mmHg 90%
    02:00 +2°C° 0 mm 2 mps 746 mmHg 90%
    03:00 +1°C° 0 mm 2 mps 745 mmHg 91%
    04:00 +1°C° 0 mm 2 mps 745 mmHg 91%
    05:00 +1°C° 0 mm 2 mps 745 mmHg 91%
    06:00 +1°C° 0 mm 2 mps 745 mmHg 91%
    07:00 0°C° 0 mm 3 mps 745 mmHg 90%
    08:00 +1°C° 0 mm 3 mps 745 mmHg 84%
    09:00 +3°C° 0 mm 3 mps 745 mmHg 77%
    10:00 +4°C° 0 mm 3 mps 745 mmHg 71%
    11:00 +7°C° 0 mm 3 mps 744 mmHg 66%
    12:00 +8°C° 0 mm 3 mps 744 mmHg 61%
    13:00 +9°C° 0 mm 3 mps 744 mmHg 57%
    14:00 +9°C° 0 mm 3 mps 743 mmHg 58%
    15:00 +8°C° 0 mm 3 mps 743 mmHg 59%
    16:00 +8°C° 0 mm 2 mps 743 mmHg 61%
    17:00 +7°C° 0 mm 3 mps 743 mmHg 65%
    18:00 +5°C° 0 mm 3 mps 743 mmHg 69%
    19:00 +4°C° 0 mm 3 mps 743 mmHg 74%
    20:00 +3°C° 0 mm 3 mps 743 mmHg 76%
    21:00 +3°C° 0 mm 3 mps 743 mmHg 79%
    22:00 +3°C° 0 mm 3 mps 743 mmHg 82%
    23:00 +2°C° 0 mm 3 mps 743 mmHg 83%

    20 February, Wednesday

    Time Temperature Precipitation Wind Pressure Humidity
    00:00 +2°C° 0 mm 3 mps 743 mmHg 85%
    01:00 +2°C° 0 mm 3 mps 743 mmHg 87%
    02:00 +2°C° 0 mm 3 mps 743 mmHg 88%
    03:00 +2°C° 0 mm 3 mps 743 mmHg 90%
    04:00 +2°C° 0 mm 3 mps 743 mmHg 91%
    05:00 +2°C° 0 mm 3 mps 744 mmHg 90%
    06:00 +2°C° 0 mm 3 mps 744 mmHg 88%
    07:00 +3°C° 0 mm 3 mps 745 mmHg 87%
    08:00 +3°C° 0 mm 4 mps 745 mmHg 81%
    09:00 +4°C° 0 mm 4 mps 745 mmHg 76%
    10:00 +5°C° 0 mm 5 mps 745 mmHg 70%
    11:00 +6°C° 0 mm 5 mps 745 mmHg 67%
    12:00 +7°C° 0 mm 6 mps 745 mmHg 64%
    13:00 +7°C° 0 mm 6 mps 745 mmHg 61%
    14:00 +7°C° 0 mm 6 mps 745 mmHg 63%
    15:00 +5°C° 0 mm 6 mps 745 mmHg 64%
    16:00 +5°C° 0 mm 6 mps 745 mmHg 65%
    17:00 +6°C° 0 mm 5 mps 745 mmHg 67%
    18:00 +5°C° 0 mm 5 mps 745 mmHg 69%
    19:00 +5°C° 0 mm 4 mps 746 mmHg 71%
    20:00 +4°C° 0.1 mm 4 mps 746 mmHg 73%
    21:00 +4°C° 0.1 mm 4 mps 746 mmHg 75%
    22:00 +4°C° 0.1 mm 4 mps 746 mmHg 77%
    23:00 +4°C° 0 mm 4 mps 746 mmHg 79%

    21 February, Thursday

    Time Temperature Precipitation Wind Pressure Humidity
    00:00 +4°C° 0 mm 4 mps 746 mmHg 80%
    01:00 +4°C° 0 mm 4 mps 746 mmHg 82%
    02:00 +3°C° 0 mm 4 mps 746 mmHg 84%
    03:00 +3°C° 0 mm 4 mps 746 mmHg 86%
    04:00 +1°C° 0 mm 4 mps 746 mmHg 88%
    05:00 +1°C° 0 mm 4 mps 746 mmHg 88%
    06:00 +1°C° 0 mm 4 mps 746 mmHg 87%
    07:00 +1°C° 0 mm 4 mps 746 mmHg 87%
    08:00 +3°C° 0.1 mm 4 mps 746 mmHg 82%
    09:00 +3°C° 0.1 mm 5 mps 746 mmHg 78%
    10:00 +5°C° 0.1 mm 5 mps 746 mmHg 73%
    11:00 +5°C° 0.1 mm 5 mps 746 mmHg 72%
    12:00 +5°C° 0.1 mm 5 mps 745 mmHg 71%
    13:00 +6°C° 0.1 mm 5 mps 745 mmHg 70%
    14:00 +6°C° 0.1 mm 5 mps 745 mmHg 71%
    15:00 +5°C° 0.1 mm 4 mps 745 mmHg 72%
    16:00 +5°C° 0.1 mm 4 mps 744 mmHg 72%
    17:00 +5°C° 0.1 mm 3 mps 744 mmHg 74%
    18:00 +4°C° 0.1 mm 3 mps 744 mmHg 76%
    19:00 +4°C° 0.1 mm 3 mps 744 mmHg 78%
    20:00 +4°C° 0.1 mm 3 mps 744 mmHg 82%
    21:00 +4°C° 0.1 mm 3 mps 744 mmHg 86%
    22:00 +4°C° 0.1 mm 3 mps 744 mmHg 89%
    23:00 +4°C° 0.2 mm 3 mps 744 mmHg 91%

    22 February, Friday

    Time Temperature Precipitation Wind Pressure Humidity
    00:00 +4°C° 0.2 mm 3 mps 744 mmHg 92%
    01:00 +4°C° 0.2 mm 3 mps 744 mmHg 94%
    02:00 +4°C° 0.3 mm 3 mps 744 mmHg 94%
    03:00 +4°C° 0.3 mm 3 mps 743 mmHg 94%
    04:00 +4°C° 0.3 mm 3 mps 743 mmHg 94%
    05:00 +4°C° 0.1 mm 3 mps 743 mmHg 95%
    06:00 +3°C° 0.1 mm 3 mps 743 mmHg 95%
    07:00 +3°C° 0.1 mm 3 mps 743 mmHg 96%
    08:00 +4°C° 0.7 mm 3 mps 743 mmHg 94%
    09:00 +4°C° 0.7 mm 4 mps 743 mmHg 93%
    10:00 +4°C° 0.7 mm 4 mps 744 mmHg 91%
    11:00 +1°C° 0.4 mm 6 mps 745 mmHg 87%
    12:00 -1°C° 0.4 mm 7 mps 745 mmHg 84%
    13:00 -4°C° 0.4 mm 9 mps 746 mmHg 80%
    14:00 -4°C° 0.1 mm 8 mps 747 mmHg 77%
    15:00 -5°C° 0.1 mm 8 mps 749 mmHg 74%
    16:00 -5°C° 0.1 mm 8 mps 750 mmHg 71%
    17:00 -6°C° 0 mm 8 mps 752 mmHg 67%
    18:00 -7°C° 0 mm 7 mps 753 mmHg 63%
    19:00 -8°C° 0 mm 6 mps 754 mmHg 59%
    20:00 -8°C° 0 mm 6 mps 755 mmHg 55%
    21:00 -8°C° 0 mm 6 mps 756 mmHg 52%
    22:00 -9°C° 0 mm 6 mps 757 mmHg 49%
    23:00 -9°C° 0 mm 6 mps 757 mmHg 48%
    Show more